Location: Ravensburg
(47.7866°N, 9.6124°E)
Time: 21:04:39
(UTC+02:00)

ITAMSAT 1 - Pass Details

Date: 16 March 2026
Orbit: 782 x 793 km, 98.7° (Epoch: 14 April)

Event Time Altitude Azimuth Distance (km) Brightness Sun altitude
Exits shadow 23:14:07 13° 296° (WNW) 2,164 10.3 -40.8°
Drops below altitude 10° 23:15:09 10° 306° (NW) 2,352 10.6 -40.9°
Sets 23:18:34 0° 330° (NNW) 3,289 11.7 -41.1°
